QFA448 YMML-YSSY

Flight info

Callsign QFA448
Flight time 1h 6m
Altitude 34000
Route DOSEL2 DOSEL Y59 RIVET RIVET4 YSSY/16L
Aircraft B737/M-SDE2E3FGHIRWXY/LB1

Departure

Time 2026-04-20 05:15
Airport Melbourne Airport (YMML)

Arrival

Time 2026-04-20 06:22
Airport Sydney Kingsford Smith International Airport (YSSY)
Time Latitude Longitude Altitude Speed Heading
2026-04-20 04:50 -37.66765 144.85010 410 ft 0 kts 259°
2026-04-20 05:05 -37.66765 144.85011 410 ft 1 kts 259°
2026-04-20 05:06 -37.66760 144.85031 406 ft 2 kts 245°
2026-04-20 05:06 -37.66752 144.85049 405 ft 2 kts 232°
2026-04-20 05:06 -37.66741 144.85064 410 ft 2 kts 220°
2026-04-20 05:06 -37.66728 144.85076 407 ft 2 kts 210°
2026-04-20 05:07 -37.66713 144.85086 409 ft 2 kts 202°
2026-04-20 05:07 -37.66697 144.85093 411 ft 2 kts 196°
2026-04-20 05:07 -37.66681 144.85098 409 ft 2 kts 192°
2026-04-20 05:07 -37.66665 144.85102 410 ft 2 kts 188°
2026-04-20 05:08 -37.66649 144.85104 410 ft 2 kts 186°
2026-04-20 05:08 -37.66632 144.85107 409 ft 2 kts 185°
2026-04-20 05:08 -37.66616 144.85109 409 ft 2 kts 186°
2026-04-20 05:08 -37.66600 144.85111 411 ft 2 kts 192°
2026-04-20 05:09 -37.66590 144.85115 408 ft 1 kts 217°
2026-04-20 05:09 -37.66589 144.85115 410 ft 0 kts 225°
2026-04-20 05:11 -37.66593 144.85104 411 ft 6 kts 250°
2026-04-20 05:12 -37.66566 144.85060 411 ft 11 kts 341°
2026-04-20 05:12 -37.66451 144.85010 411 ft 20 kts 322°
2026-04-20 05:12 -37.66358 144.84920 408 ft 7 kts 322°
2026-04-20 05:12 -37.66357 144.84919 408 ft 0 kts 321°
2026-04-20 05:14 -37.66355 144.84917 413 ft 4 kts 323°
2026-04-20 05:14 -37.66270 144.84820 410 ft 23 kts 311°
2026-04-20 05:14 -37.66221 144.84708 416 ft 0 kts 275°
2026-04-20 05:14 -37.66213 144.84578 412 ft 52 kts 274°
2026-04-20 05:15 -37.66164 144.83708 414 ft 143 kts 274°
2026-04-20 05:15 -37.66063 144.82254 799 ft 188 kts 274°
2026-04-20 05:15 -37.65920 144.80491 1632 ft 212 kts 276°
2026-04-20 05:15 -37.65776 144.78557 2534 ft 227 kts 274°
2026-04-20 05:16 -37.65696 144.76539 3652 ft 235 kts 272°
2026-04-20 05:16 -37.65604 144.74429 4667 ft 243 kts 272°
2026-04-20 05:16 -37.65499 144.72386 5001 ft 221 kts 272°
2026-04-20 05:16 -37.65397 144.70568 5355 ft 191 kts 271°
2026-04-20 05:17 -37.65303 144.68959 5387 ft 191 kts 274°
2026-04-20 05:17 -37.64792 144.67216 5575 ft 229 kts 299°
2026-04-20 05:17 -37.63723 144.65546 5827 ft 262 kts 317°
2026-04-20 05:17 -37.62090 144.64370 6503 ft 277 kts 337°
2026-04-20 05:18 -37.60236 144.63621 7359 ft 282 kts 341°
2026-04-20 05:18 -37.58353 144.62947 8230 ft 285 kts 341°
2026-04-20 05:18 -37.56417 144.62315 9099 ft 291 kts 350°
2026-04-20 05:18 -37.54384 144.62532 9949 ft 300 kts 18°
2026-04-20 05:19 -37.52600 144.63926 10681 ft 310 kts 45°
2026-04-20 05:19 -37.51168 144.66108 10932 ft 335 kts 53°
2026-04-20 05:19 -37.49731 144.68567 11148 ft 360 kts 54°
2026-04-20 05:19 -37.48225 144.71164 11639 ft 372 kts 53°
2026-04-20 05:20 -37.46751 144.73815 12368 ft 376 kts 58°
2026-04-20 05:20 -37.45399 144.76646 13155 ft 379 kts 60°
2026-04-20 05:20 -37.44098 144.79551 13909 ft 383 kts 61°
2026-04-20 05:20 -37.42799 144.82490 14569 ft 388 kts 61°
2026-04-20 05:21 -37.41466 144.85484 15224 ft 393 kts 61°
2026-04-20 05:21 -37.40228 144.88233 15845 ft 396 kts 60°
2026-04-20 05:21 -37.38856 144.91254 16505 ft 400 kts 60°
2026-04-20 05:21 -37.37456 144.94313 17144 ft 404 kts 60°
2026-04-20 05:22 -37.36040 144.97392 17784 ft 409 kts 60°
2026-04-20 05:22 -37.34617 145.00477 18413 ft 413 kts 60°
2026-04-20 05:22 -37.33166 145.03618 18965 ft 417 kts 60°
2026-04-20 05:22 -37.31702 145.06784 19529 ft 420 kts 60°
2026-04-20 05:23 -37.30239 145.09945 20091 ft 423 kts 60°
2026-04-20 05:23 -37.28753 145.13153 20646 ft 426 kts 60°
2026-04-20 05:23 -37.27255 145.16386 21176 ft 430 kts 60°
2026-04-20 05:23 -37.25742 145.19645 21690 ft 434 kts 60°
2026-04-20 05:24 -37.24215 145.22934 22207 ft 437 kts 60°
2026-04-20 05:24 -37.22673 145.26250 22724 ft 440 kts 60°
2026-04-20 05:24 -37.21138 145.29550 23203 ft 444 kts 60°
2026-04-20 05:24 -37.19565 145.32929 23698 ft 447 kts 61°
2026-04-20 05:25 -37.18001 145.36283 24115 ft 450 kts 61°
2026-04-20 05:25 -37.16404 145.39689 24526 ft 453 kts 60°
2026-04-20 05:25 -37.14897 145.42607 24888 ft 455 kts 57°
2026-04-20 05:25 -37.13055 145.45874 25272 ft 459 kts 55°
2026-04-20 05:26 -37.11207 145.49023 25654 ft 461 kts 54°
2026-04-20 05:26 -37.09260 145.52307 26043 ft 464 kts 54°
2026-04-20 05:26 -37.07333 145.55570 26424 ft 467 kts 54°
2026-04-20 05:26 -37.05400 145.58870 26787 ft 469 kts 55°
2026-04-20 05:27 -37.03478 145.62175 27135 ft 472 kts 55°
2026-04-20 05:27 -37.01541 145.65522 27485 ft 474 kts 55°
2026-04-20 05:27 -36.99600 145.68886 27838 ft 477 kts 55°
2026-04-20 05:27 -36.97656 145.72256 28164 ft 479 kts 55°
2026-04-20 05:28 -36.95697 145.75649 28484 ft 482 kts 55°
2026-04-20 05:28 -36.93750 145.79018 28811 ft 484 kts 55°
2026-04-20 05:28 -36.91760 145.82457 29132 ft 487 kts 55°
2026-04-20 05:28 -36.89770 145.85890 29432 ft 489 kts 55°
2026-04-20 05:29 -36.87789 145.89304 29719 ft 492 kts 55°
2026-04-20 05:29 -36.85775 145.92771 30015 ft 494 kts 55°
2026-04-20 05:29 -36.83751 145.96252 30350 ft 495 kts 55°
2026-04-20 05:29 -36.81721 145.99739 30720 ft 494 kts 55°
2026-04-20 05:30 -36.79699 146.03207 31124 ft 492 kts 55°
2026-04-20 05:30 -36.77686 146.06657 31491 ft 490 kts 55°
2026-04-20 05:30 -36.75702 146.10055 31820 ft 490 kts 55°
2026-04-20 05:30 -36.73694 146.13490 32129 ft 490 kts 55°
2026-04-20 05:31 -36.72352 146.15786 32350 ft 490 kts 55°
2026-04-20 05:31 -36.69912 146.19952 32763 ft 488 kts 55°
2026-04-20 05:31 -36.67934 146.23325 33111 ft 487 kts 55°
2026-04-20 05:31 -36.65933 146.26736 33429 ft 487 kts 55°
2026-04-20 05:32 -36.63934 146.30140 33744 ft 486 kts 55°
2026-04-20 05:32 -36.61935 146.33540 34061 ft 486 kts 55°
2026-04-20 05:32 -36.60601 146.35807 34274 ft 485 kts 55°
2026-04-20 05:32 -36.57936 146.40332 34635 ft 485 kts 55°
2026-04-20 05:33 -36.55967 146.43671 34864 ft 485 kts 55°
2026-04-20 05:33 -36.54615 146.45962 35009 ft 485 kts 55°
2026-04-20 05:33 -36.52613 146.49351 35227 ft 485 kts 55°
2026-04-20 05:34 -36.48612 146.56116 35261 ft 488 kts 55°
2026-04-20 05:34 -36.42605 146.66243 35259 ft 484 kts 55°
2026-04-20 05:35 -36.38603 146.72975 35252 ft 483 kts 56°
2026-04-20 05:35 -36.34625 146.79653 35260 ft 482 kts 56°
2026-04-20 05:36 -36.30635 146.86340 35256 ft 482 kts 56°
2026-04-20 05:36 -36.26639 146.93023 35258 ft 483 kts 56°
2026-04-20 05:37 -36.22631 146.99715 35252 ft 483 kts 56°
2026-04-20 05:37 -36.19286 147.05290 35255 ft 484 kts 56°
2026-04-20 05:38 -36.14010 147.14061 35261 ft 486 kts 56°
2026-04-20 05:38 -36.09985 147.20738 35252 ft 488 kts 56°
2026-04-20 05:39 -36.06580 147.26381 35260 ft 488 kts 56°
2026-04-20 05:39 -36.02533 147.33075 35256 ft 489 kts 56°
2026-04-20 05:40 -35.98445 147.39822 35250 ft 489 kts 56°
2026-04-20 05:40 -35.94366 147.46545 35249 ft 489 kts 56°
2026-04-20 05:41 -35.90308 147.53219 35256 ft 489 kts 56°
2026-04-20 05:41 -35.86224 147.59925 35255 ft 488 kts 56°
2026-04-20 05:42 -35.82825 147.65492 35251 ft 488 kts 56°
2026-04-20 05:42 -35.78042 147.73305 35256 ft 488 kts 56°
2026-04-20 05:43 -35.73981 147.79926 35251 ft 487 kts 56°
2026-04-20 05:43 -35.69890 147.86585 35253 ft 486 kts 56°
2026-04-20 05:44 -35.65797 147.93238 35257 ft 486 kts 56°
2026-04-20 05:44 -35.61739 147.99820 35255 ft 486 kts 56°
2026-04-20 05:45 -35.57900 148.06035 35255 ft 486 kts 57°
2026-04-20 05:45 -35.54268 148.11906 35261 ft 486 kts 57°
2026-04-20 05:46 -35.51773 148.15933 35261 ft 486 kts 57°
2026-04-20 05:46 -35.45602 148.25876 35267 ft 487 kts 57°
2026-04-20 05:47 -35.41499 148.32465 35248 ft 487 kts 57°
2026-04-20 05:47 -35.37370 148.39071 35264 ft 487 kts 57°
2026-04-20 05:48 -35.33244 148.45659 35261 ft 488 kts 57°
2026-04-20 05:48 -35.29109 148.52253 35267 ft 488 kts 57°
2026-04-20 05:49 -35.24989 148.58812 35259 ft 488 kts 57°
2026-04-20 05:49 -35.20843 148.65401 35269 ft 488 kts 57°
2026-04-20 05:50 -35.16947 148.71581 35261 ft 488 kts 57°
2026-04-20 05:50 -35.12814 148.78124 35262 ft 489 kts 57°
2026-04-20 05:51 -35.08652 148.84701 35261 ft 489 kts 57°
2026-04-20 05:51 -35.04484 148.91276 35259 ft 488 kts 57°
2026-04-20 05:52 -35.00350 148.97785 35264 ft 487 kts 57°
2026-04-20 05:52 -34.96189 149.04323 35234 ft 487 kts 58°
2026-04-20 05:53 -34.92055 149.10809 35264 ft 486 kts 58°
2026-04-20 05:53 -34.87894 149.17324 35272 ft 485 kts 58°
2026-04-20 05:54 -34.85837 149.20535 35254 ft 471 kts 58°
2026-04-20 05:54 -34.83875 149.23591 35249 ft 457 kts 58°
2026-04-20 05:54 -34.81949 149.26591 35255 ft 443 kts 58°
2026-04-20 05:54 -34.80083 149.29503 35230 ft 430 kts 58°
2026-04-20 05:55 -34.78262 149.32348 35010 ft 420 kts 58°
2026-04-20 05:55 -34.76472 149.35142 34625 ft 415 kts 58°
2026-04-20 05:55 -34.74719 149.37875 34114 ft 413 kts 59°
2026-04-20 05:55 -34.73115 149.40795 33037 ft 416 kts 68°
2026-04-20 05:56 -34.71715 149.43962 31756 ft 431 kts 69°
2026-04-20 05:56 -34.70331 149.47222 30402 ft 447 kts 69°
2026-04-20 05:56 -34.68880 149.50657 28965 ft 459 kts 68°
2026-04-20 05:56 -34.67404 149.54104 28083 ft 457 kts 67°
2026-04-20 05:57 -34.65935 149.57485 27539 ft 447 kts 67°
2026-04-20 05:57 -34.64644 149.60436 27051 ft 438 kts 67°
2026-04-20 05:57 -34.63261 149.63589 26553 ft 430 kts 66°
2026-04-20 05:57 -34.61867 149.66762 26058 ft 421 kts 66°
2026-04-20 05:58 -34.60496 149.69887 25578 ft 415 kts 66°
2026-04-20 05:58 -34.59151 149.72952 25108 ft 408 kts 66°
2026-04-20 05:58 -34.57821 149.75985 24651 ft 409 kts 66°
2026-04-20 05:58 -34.56463 149.79086 24166 ft 424 kts 66°
2026-04-20 05:59 -34.55064 149.82274 23591 ft 426 kts 66°
2026-04-20 05:59 -34.53677 149.85418 23039 ft 417 kts 66°
2026-04-20 05:59 -34.52337 149.88450 22545 ft 407 kts 66°
2026-04-20 05:59 -34.51015 149.91440 22060 ft 398 kts 65°
2026-04-20 06:00 -34.49720 149.94373 21631 ft 389 kts 66°
2026-04-20 06:00 -34.48454 149.97234 21267 ft 381 kts 66°
2026-04-20 06:00 -34.47212 150.00039 20838 ft 376 kts 66°
2026-04-20 06:00 -34.45963 150.02864 20400 ft 384 kts 65°
2026-04-20 06:01 -34.44691 150.05750 19960 ft 399 kts 65°
2026-04-20 06:01 -34.43379 150.08715 19455 ft 395 kts 65°
2026-04-20 06:01 -34.42086 150.11624 18966 ft 387 kts 65°
2026-04-20 06:01 -34.40838 150.14429 18511 ft 379 kts 65°
2026-04-20 06:02 -34.39597 150.17217 17966 ft 372 kts 65°
2026-04-20 06:02 -34.38377 150.19957 17494 ft 365 kts 65°
2026-04-20 06:02 -34.37179 150.22649 17051 ft 360 kts 65°
2026-04-20 06:02 -34.35999 150.25300 16611 ft 356 kts 65°
2026-04-20 06:03 -34.34818 150.27954 16193 ft 362 kts 65°
2026-04-20 06:03 -34.33614 150.30662 15756 ft 373 kts 65°
2026-04-20 06:03 -34.32383 150.33419 15296 ft 369 kts 64°
2026-04-20 06:03 -34.31175 150.36120 14824 ft 360 kts 64°
2026-04-20 06:04 -34.29997 150.38753 14393 ft 352 kts 64°
2026-04-20 06:04 -34.28842 150.41331 13947 ft 345 kts 65°
2026-04-20 06:04 -34.27718 150.43844 13503 ft 341 kts 65°
2026-04-20 06:04 -34.26595 150.46350 13107 ft 337 kts 65°
2026-04-20 06:05 -34.25475 150.48857 12700 ft 343 kts 65°
2026-04-20 06:05 -34.24322 150.51437 12274 ft 353 kts 64°
2026-04-20 06:05 -34.23153 150.54048 11807 ft 350 kts 64°
2026-04-20 06:05 -34.22035 150.56537 11379 ft 342 kts 64°
2026-04-20 06:06 -34.20917 150.59028 11012 ft 332 kts 65°
2026-04-20 06:06 -34.19841 150.61418 10878 ft 316 kts 65°
2026-04-20 06:06 -34.18809 150.63711 10735 ft 306 kts 65°
2026-04-20 06:06 -34.18215 150.65030 10655 ft 301 kts 65°
2026-04-20 06:07 -34.17238 150.67205 10466 ft 301 kts 65°
2026-04-20 06:07 -34.16223 150.69470 10174 ft 306 kts 65°
2026-04-20 06:07 -34.15221 150.71694 10017 ft 297 kts 65°
2026-04-20 06:07 -34.14272 150.73799 9981 ft 286 kts 65°
2026-04-20 06:08 -34.13353 150.75837 9964 ft 274 kts 65°
2026-04-20 06:08 -34.12461 150.77816 9913 ft 264 kts 65°
2026-04-20 06:08 -34.11584 150.79759 9693 ft 261 kts 65°
2026-04-20 06:08 -34.10708 150.81705 9179 ft 269 kts 65°
2026-04-20 06:09 -34.09801 150.83723 8624 ft 281 kts 65°
2026-04-20 06:09 -34.08877 150.85777 8300 ft 281 kts 65°
2026-04-20 06:09 -34.08468 150.86685 8173 ft 280 kts 65°
2026-04-20 06:09 -34.08160 150.87368 8094 ft 279 kts 65°
2026-04-20 06:10 -34.06319 150.91456 7491 ft 277 kts 65°
2026-04-20 06:10 -34.05396 150.93502 7219 ft 276 kts 65°
2026-04-20 06:10 -34.04491 150.95509 6934 ft 275 kts 65°
2026-04-20 06:10 -34.03577 150.97533 6661 ft 274 kts 65°
2026-04-20 06:11 -34.02974 150.98863 6473 ft 273 kts 63°
2026-04-20 06:11 -34.01115 151.00973 6086 ft 280 kts 27°
2026-04-20 06:11 -33.99333 151.01823 6015 ft 271 kts 21°
2026-04-20 06:11 -33.97604 151.02554 5961 ft 261 kts 20°
2026-04-20 06:12 -33.95911 151.03260 5952 ft 249 kts 19°
2026-04-20 06:12 -33.94252 151.03493 5963 ft 237 kts 356°
2026-04-20 06:12 -33.92614 151.03308 5963 ft 236 kts 353°
2026-04-20 06:12 -33.90966 151.03086 5983 ft 241 kts 353°
2026-04-20 06:13 -33.89322 151.02859 5995 ft 233 kts 353°
2026-04-20 06:13 -33.88262 151.02711 5973 ft 229 kts 353°
2026-04-20 06:13 -33.86164 151.02421 5943 ft 224 kts 353°
2026-04-20 06:13 -33.84633 151.02208 5721 ft 222 kts 353°
2026-04-20 06:14 -33.83089 151.01992 5406 ft 223 kts 352°
2026-04-20 06:14 -33.81559 151.01780 5150 ft 220 kts 353°
2026-04-20 06:14 -33.80050 151.01575 4838 ft 220 kts 353°
2026-04-20 06:14 -33.78538 151.01369 4564 ft 218 kts 353°
2026-04-20 06:15 -33.77512 151.01228 4334 ft 220 kts 353°
2026-04-20 06:15 -33.75524 151.01335 4001 ft 214 kts 27°
2026-04-20 06:15 -33.74570 151.02229 3995 ft 207 kts 59°
2026-04-20 06:15 -33.74044 151.03791 3991 ft 200 kts 82°
2026-04-20 06:16 -33.73740 151.05408 3967 ft 196 kts 82°
2026-04-20 06:16 -33.73442 151.06985 3953 ft 190 kts 85°
2026-04-20 06:16 -33.73555 151.08490 3980 ft 179 kts 123°
2026-04-20 06:16 -33.74394 151.09525 3984 ft 176 kts 150°
2026-04-20 06:17 -33.75445 151.10287 3974 ft 176 kts 152°
2026-04-20 06:17 -33.76499 151.11028 3971 ft 175 kts 153°
2026-04-20 06:17 -33.77550 151.11766 3975 ft 174 kts 153°
2026-04-20 06:17 -33.78588 151.12493 3955 ft 168 kts 152°
2026-04-20 06:18 -33.79569 151.13124 3955 ft 154 kts 157°
2026-04-20 06:18 -33.80479 151.13800 3971 ft 153 kts 154°
2026-04-20 06:18 -33.81463 151.14222 3964 ft 148 kts 171°
2026-04-20 06:18 -33.82500 151.14466 3994 ft 153 kts 169°
2026-04-20 06:19 -33.83514 151.14718 3968 ft 146 kts 170°
2026-04-20 06:19 -33.84473 151.14962 3913 ft 143 kts 170°
2026-04-20 06:19 -33.85489 151.15221 3421 ft 150 kts 169°
2026-04-20 06:19 -33.86508 151.15485 3001 ft 151 kts 169°
2026-04-20 06:20 -33.87547 151.15783 2469 ft 157 kts 168°
2026-04-20 06:20 -33.88589 151.16065 1840 ft 165 kts 168°
2026-04-20 06:20 -33.89333 151.16257 1551 ft 163 kts 168°
2026-04-20 06:20 -33.90813 151.16605 958 ft 162 kts 168°
2026-04-20 06:21 -33.91892 151.16909 478 ft 160 kts 169°
2026-04-20 06:21 -33.92894 151.17168 175 ft 149 kts 169°
2026-04-20 06:21 -33.93789 151.17399 43 ft 126 kts 172°
2026-04-20 06:21 -33.94529 151.17573 29 ft 81 kts 168°
2026-04-20 06:22 -33.94874 151.17660 28 ft 21 kts 164°
2026-04-20 06:22 -33.94933 151.17676 28 ft 33 kts 167°
2026-04-20 06:22 -33.95179 151.17879 29 ft 36 kts 76°
2026-04-20 06:22 -33.95165 151.17934 29 ft 0 kts 72°
2026-04-20 06:24 -33.95156 151.17951 29 ft 6 kts 46°
2026-04-20 06:24 -33.95143 151.17957 29 ft 2 kts 352°
2026-04-20 06:25 -33.95092 151.17940 29 ft 10 kts 346°
2026-04-20 06:25 -33.95010 151.17918 29 ft 15 kts 349°
2026-04-20 06:25 -33.94907 151.17893 29 ft 15 kts 347°
2026-04-20 06:25 -33.94810 151.17867 29 ft 14 kts 347°
2026-04-20 06:26 -33.94716 151.17843 29 ft 13 kts 348°
2026-04-20 06:26 -33.94651 151.17826 29 ft 0 kts 347°
2026-04-20 06:27 -33.94644 151.17824 29 ft 6 kts 349°
2026-04-20 06:27 -33.94544 151.17799 29 ft 21 kts 349°
2026-04-20 06:27 -33.94382 151.17751 29 ft 24 kts 345°
2026-04-20 06:28 -33.94259 151.17712 28 ft 15 kts 345°
2026-04-20 06:28 -33.94177 151.17687 28 ft 0 kts 345°
2026-04-20 06:28 -33.94145 151.17677 28 ft 15 kts 346°
2026-04-20 06:28 -33.93996 151.17635 27 ft 23 kts 347°
2026-04-20 06:29 -33.93840 151.17595 28 ft 22 kts 348°
2026-04-20 06:29 -33.93701 151.17563 28 ft 19 kts
2026-04-20 06:29 -33.93591 151.17610 29 ft 16 kts 354°
2026-04-20 06:29 -33.93495 151.17588 29 ft 12 kts 347°
2026-04-20 06:30 -33.93414 151.17592 29 ft 12 kts
2026-04-20 06:30 -33.93335 151.17579 29 ft 11 kts 349°
2026-04-20 06:30 -33.93238 151.17554 29 ft 21 kts 347°
2026-04-20 06:30 -33.93088 151.17515 29 ft 22 kts 351°
2026-04-20 06:31 -33.93006 151.17577 29 ft 13 kts 63°
2026-04-20 06:31 -33.93006 151.17592 29 ft 3 kts 108°